Denison, IA

6:39 PM CDT on July 25, 2017 (GMT -0500)
Denison Municipal

Weather History for KDNS - July, 2014

Change the Weather History Date:

Tuesday, July 22, 2014

  Actual Average Record
Temperature  
Mean Temperature 76 °F -  
Max Temperature 84 °F 82 °F 98 °F (2012)
Min Temperature 69 °F 65 °F 53 °F (2006)
Cooling Degree Days 12    
Growing Degree Days 26 (Base 50)    
Moisture  
Dew Point 71 °F    
Average Humidity 76    
Maximum Humidity 94    
Minimum Humidity 62    
Precipitation  
Precipitation 0.00 in - - ()
Sea Level Pressure  
Sea Level Pressure 30.01 in    
Wind  
Wind Speed 8 mph (North)    
Max Wind Speed 14 mph    
Max Gust Speed 20 mph    
Visibility 10 miles    
Events      
Averages and records for this station are not official NWS values.
T = Trace of Precipitation, MM = Missing Value Source: NWS Daily Summary

Daily Weather History Graph

Daily Weather History Graph

Search for Another Location

Airport or City:

Trip Planner

Search our weather history database for the weather conditions in past years. The results will help you decide how hot, cold, wet, or windy it might be!

Date:

Astronomy

Jul. 22, 2014 Rise Set
Actual Time 6:05 AM CDT 8:50 PM CDT
Civil Twilight 5:32 AM CDT 9:22 PM CDT
Nautical Twilight 4:51 AM CDT 10:03 PM CDT
Astronomical Twilight 4:04 AM CDT 10:50 PM CDT
Moon 2:39 AM CDT (7/22) 5:28 PM CDT (7/22)
Length of Visible Light 15h 49m
Length of Day
14h 44m
Waning Crescent, 16% of the Moon is Illuminated
Jul 22
Waning Crescent
Jul 26
New
Aug 3
First Quarter
Aug 10
Full
Aug 17
Last Quarter

Hourly Weather History & Observations

Time (CDT) Temp. Heat Index Dew Point Humidity Pressure Visibility Wind Dir Wind Speed Gust Speed Precip Events Conditions
12:15 AM 82.4 °F 90.9 °F 77.0 °F 84% 29.85 in 10.0 mi South 9.2 mph 15.0 mph N/A   Clear
12:35 AM 82.4 °F 90.9 °F 77.0 °F 84% 29.86 in 10.0 mi South 8.1 mph 15.0 mph N/A   Clear
12:55 AM 80.6 °F 87.1 °F 77.0 °F 89% 29.86 in 10.0 mi SSW 8.1 mph - N/A   Clear
1:15 AM 80.6 °F 86.2 °F 75.2 °F 84% 29.87 in 10.0 mi SSW 8.1 mph - N/A   Clear
1:35 AM 80.6 °F 86.2 °F 75.2 °F 84% 29.87 in 10.0 mi Variable 6.9 mph 12.7 mph N/A   Clear
1:55 AM 80.6 °F 86.2 °F 75.2 °F 84% 29.87 in 10.0 mi Variable 5.8 mph 11.5 mph N/A   Clear
2:15 AM 80.6 °F 86.2 °F 75.2 °F 84% 29.87 in 10.0 mi Variable 6.9 mph 13.8 mph N/A   Clear
2:35 AM 80.6 °F 86.2 °F 75.2 °F 84% 29.87 in 10.0 mi South 8.1 mph - N/A   Clear
2:55 AM 80.6 °F 86.2 °F 75.2 °F 84% 29.86 in 10.0 mi South 8.1 mph - N/A   Clear
3:15 AM 78.8 °F - 75.2 °F 89% 29.86 in 10.0 mi South 8.1 mph - N/A   Clear
3:35 AM 78.8 °F - 75.2 °F 89% 29.87 in 10.0 mi Variable 6.9 mph - N/A   Clear
3:55 AM 78.8 °F - 75.2 °F 89% 29.88 in 10.0 mi Calm Calm - N/A   Clear
4:15 AM 77.0 °F - 75.2 °F 94% 29.87 in 10.0 mi Calm Calm - N/A   Clear
4:35 AM 78.8 °F - 75.2 °F 89% 29.87 in 10.0 mi Variable 4.6 mph - N/A   Clear
4:55 AM 78.8 °F - 73.4 °F 83% 29.87 in 10.0 mi Variable 4.6 mph - N/A   Clear
5:15 AM 78.8 °F - 73.4 °F 83% 29.88 in 10.0 mi SSW 5.8 mph - N/A   Clear
6:35 AM 77.0 °F - 73.4 °F 89% 29.90 in 10.0 mi Calm Calm - N/A   Clear
6:55 AM 77.0 °F - 73.4 °F 89% 29.93 in 9.0 mi North - - N/A   Clear
7:15 AM 78.8 °F - 75.2 °F 89% 29.94 in 9.0 mi North - - N/A   Clear
7:35 AM 78.8 °F - 73.4 °F 83% 29.96 in 10.0 mi North - - N/A   Clear
7:55 AM 78.8 °F - 75.2 °F 89% 29.97 in 9.0 mi NNW 8.1 mph - N/A   Mostly Cloudy
8:15 AM 80.6 °F 86.2 °F 75.2 °F 84% 29.99 in 8.0 mi North 13.8 mph - N/A   Mostly Cloudy
8:35 AM 80.6 °F 86.2 °F 75.2 °F 84% 29.98 in 9.0 mi NNE 11.5 mph - N/A   Partly Cloudy
8:55 AM 80.6 °F 85.4 °F 73.4 °F 79% 29.98 in 10.0 mi NE 13.8 mph - N/A   Clear
9:15 AM 78.8 °F - 68.0 °F 69% 29.98 in 10.0 mi NE 10.4 mph 18.4 mph N/A   Clear
9:35 AM 78.8 °F - 68.0 °F 69% 29.98 in 10.0 mi NNE 9.2 mph 16.1 mph N/A   Clear
9:55 AM 78.8 °F - 68.0 °F 69% 29.94 in 10.0 mi ESE 10.4 mph 18.4 mph N/A   Clear
10:15 AM 78.8 °F - 69.8 °F 74% 29.97 in 10.0 mi North 8.1 mph - N/A   Clear
10:35 AM 78.8 °F - 68.0 °F 69% 29.93 in 10.0 mi East 12.7 mph 19.6 mph N/A   Clear
10:55 AM 78.8 °F - 68.0 °F 69% 29.96 in 10.0 mi Variable 4.6 mph 11.5 mph N/A   Clear
11:15 AM 80.6 °F 83.2 °F 68.0 °F 65% 29.96 in 10.0 mi East 8.1 mph - N/A   Clear
11:35 AM 78.8 °F - 69.8 °F 74% 30.00 in 10.0 mi NW 6.9 mph - N/A   Clear
12:15 PM 78.8 °F - 69.8 °F 74% 30.03 in 10.0 mi NW 6.9 mph - N/A   Clear
12:35 PM 80.6 °F 83.9 °F 69.8 °F 70% 30.06 in 10.0 mi NW 9.2 mph - N/A   Clear
12:55 PM 82.4 °F 87.2 °F 71.6 °F 70% 30.05 in 10.0 mi NNW 10.4 mph - N/A   Clear
1:15 PM 84.2 °F 88.4 °F 69.8 °F 62% 30.06 in 10.0 mi NNW 9.2 mph - N/A   Clear
1:35 PM 84.2 °F 89.6 °F 71.6 °F 66% 30.05 in 10.0 mi North 10.4 mph - N/A   Clear
1:55 PM 84.2 °F 88.4 °F 69.8 °F 62% 30.05 in 10.0 mi North 9.2 mph - N/A   Clear
2:15 PM 84.2 °F 88.4 °F 69.8 °F 62% 30.04 in 10.0 mi NNE 8.1 mph - N/A   Clear
2:35 PM 84.2 °F 88.4 °F 69.8 °F 62% 30.04 in 10.0 mi NNE 11.5 mph - N/A   Clear
2:55 PM 84.2 °F 89.6 °F 71.6 °F 66% 30.05 in 10.0 mi North 8.1 mph - N/A   Clear
3:15 PM 84.2 °F 89.6 °F 71.6 °F 66% 30.07 in 10.0 mi North 12.7 mph - N/A   Clear
3:35 PM 84.2 °F 89.6 °F 71.6 °F 66% 30.08 in 10.0 mi North 12.7 mph 18.4 mph N/A   Clear
3:55 PM 82.4 °F 87.2 °F 71.6 °F 70% 30.09 in 10.0 mi NNW 11.5 mph - N/A   Clear
4:15 PM 82.4 °F 86.3 °F 69.8 °F 66% 30.10 in 10.0 mi North 12.7 mph 19.6 mph N/A   Clear
4:35 PM 82.4 °F 86.3 °F 69.8 °F 66% 30.09 in 10.0 mi North 11.5 mph - N/A   Clear
4:55 PM 82.4 °F 86.3 °F 69.8 °F 66% 30.06 in 10.0 mi NE 12.7 mph - N/A   Clear
5:15 PM 82.4 °F 86.3 °F 69.8 °F 66% 30.06 in 10.0 mi NNE 10.4 mph - N/A   Clear
5:35 PM 80.6 °F 83.9 °F 69.8 °F 70% 30.09 in 10.0 mi North 12.7 mph - N/A   Clear
5:55 PM 80.6 °F 83.9 °F 69.8 °F 70% 30.10 in 10.0 mi NNW 6.9 mph 15.0 mph N/A   Clear
6:15 PM 80.6 °F 83.9 °F 69.8 °F 70% 30.09 in 10.0 mi North 9.2 mph - N/A   Clear
6:35 PM 80.6 °F 83.9 °F 69.8 °F 70% 30.08 in 10.0 mi NNE 12.7 mph - N/A   Clear
6:55 PM 80.6 °F 83.9 °F 69.8 °F 70% 30.09 in 10.0 mi North 10.4 mph 18.4 mph N/A   Clear
7:15 PM 80.6 °F 83.2 °F 68.0 °F 65% 30.11 in 10.0 mi North 12.7 mph - N/A   Clear
7:35 PM 80.6 °F 83.2 °F 68.0 °F 65% 30.11 in 10.0 mi North 10.4 mph 16.1 mph N/A   Clear
7:55 PM 78.8 °F - 68.0 °F 69% 30.11 in 10.0 mi North 8.1 mph - N/A   Clear
8:15 PM 77.0 °F - 68.0 °F 74% 30.11 in 10.0 mi North 5.8 mph - N/A   Clear
8:35 PM 77.0 °F - 68.0 °F 74% 30.12 in 10.0 mi North 5.8 mph - N/A   Clear
9:15 PM 73.4 °F - 66.2 °F 78% 30.12 in 10.0 mi North 3.5 mph - N/A   Clear
9:35 PM 73.4 °F - 66.2 °F 78% 30.13 in 10.0 mi NNE 5.8 mph - N/A   Clear
9:55 PM 73.4 °F - 66.2 °F 78% 30.13 in 10.0 mi NNE 5.8 mph - N/A   Clear
10:15 PM 71.6 °F - 66.2 °F 83% 30.14 in 10.0 mi NNE 6.9 mph - N/A   Clear
10:35 PM 71.6 °F - 64.4 °F 78% 30.15 in 10.0 mi NNE 6.9 mph - N/A   Clear
10:55 PM 69.8 °F - 64.4 °F 83% 30.15 in - NNE 4.6 mph - N/A   Clear
11:15 PM 69.8 °F - 64.4 °F 83% 30.15 in 10.0 mi NNE 4.6 mph - N/A   Clear
11:35 PM 69.8 °F - 62.6 °F 78% 30.15 in 10.0 mi NNE 6.9 mph - N/A   Clear
11:55 PM 69.8 °F - 60.8 °F 73% 30.16 in 10.0 mi NNE 8.1 mph - N/A   Clear